Tarbes, France

10:32 AM CEST on May 22, 2018 (GMT +0200)
Lourdes-Pyrenees

Weather History for LFBT - October, 2013

Change the Weather History Date:

Tuesday, October 15, 2013

  Actual Average Record
Temperature  
Mean Temperature 62 °F -  
Max Temperature 68 °F 58 °F 83 °F (2017)
Min Temperature 55 °F 42 °F 32 °F (2015)
Degree Days  
Heating Degree Days 4    
Growing Degree Days 12 (Base 50)    
Moisture  
Dew Point 55 °F    
Average Humidity 82    
Maximum Humidity 94    
Minimum Humidity 64    
Precipitation  
Precipitation 0.04 in - - ()
Sea Level Pressure  
Sea Level Pressure 30.03 in    
Wind  
Wind Speed 4 mph ()    
Max Wind Speed 10 mph    
Max Gust Speed -    
Visibility 6.2 miles    
Events Rain    
Averages and records for this station are not official NWS values.
T = Trace of Precipitation, MM = Missing Value Source: Averaged Metar Reports

Daily Weather History Graph

Daily Weather History Graph

Search for Another Location

Airport or City:

Astronomy

Oct. 15, 2013 Rise Set
Actual Time 8:13 AM CEST 7:17 PM CEST
Civil Twilight 7:45 AM CEST 7:45 PM CEST
Nautical Twilight 7:12 AM CEST 8:18 PM CEST
Astronomical Twilight 6:39 AM CEST 8:51 PM CEST
Moon 5:18 PM CEST (10/15) 4:14 AM CEST (10/15)
Length of Visible Light 12h 00m
Length of Day
11h 03m
Waxing Gibbous, 85% of the Moon is Illuminated
Oct 15
Waxing Gibbous
Oct 19
Full
Oct 27
Last Quarter
Nov 3
New
Nov 10
First Quarter

Hourly Weather History & Observations

Time (CEST) Temp. Dew Point Humidity Pressure Visibility Wind Dir Wind Speed Gust Speed Precip Events Conditions
12:00 AM 57.2 °F 53.6 °F 88% 30.09 in 6.2 mi SSE 5.8 mph - N/A   Overcast
12:30 AM 55.4 °F 51.8 °F 88% 30.09 in 6.2 mi South 3.5 mph - N/A   Overcast
1:00 AM 57.2 °F 51.8 °F 82% 30.06 in 6.2 mi South 4.6 mph - N/A   Mostly Cloudy
1:30 AM 55.4 °F 53.6 °F 94% 30.06 in 6.2 mi South 4.6 mph - N/A   Mostly Cloudy
2:00 AM 57.2 °F 53.6 °F 88% 30.09 in 6.2 mi Variable 2.3 mph - N/A Rain Light Rain
2:30 AM 57.2 °F 53.6 °F 88% 30.06 in 6.2 mi South 6.9 mph - N/A Rain Light Rain
3:00 AM 57.2 °F 53.6 °F 88% 30.06 in 6.2 mi South 5.8 mph - N/A Rain Light Rain
3:30 AM 57.2 °F 53.6 °F 88% 30.06 in 6.2 mi SSW 5.8 mph - N/A   Overcast
4:00 AM 57.2 °F 53.6 °F 88% 30.04 in 6.2 mi South 2.3 mph - N/A Rain Light Rain
4:30 AM 55.4 °F 53.6 °F 94% 30.04 in 6.2 mi South 1.2 mph - N/A   Overcast
5:00 AM 55.4 °F 53.6 °F 94% 30.04 in 6.2 mi Variable 3.5 mph - N/A   Overcast
5:30 AM 55.4 °F 53.6 °F 94% 30.04 in 6.2 mi South 4.6 mph - N/A   Overcast
6:00 AM 55.4 °F 53.6 °F 94% 30.04 in 6.2 mi SSE 4.6 mph - N/A   Overcast
6:30 AM 57.2 °F 53.6 °F 88% 30.01 in 6.2 mi South 4.6 mph - N/A   Overcast
7:00 AM 57.2 °F 53.6 °F 88% 30.01 in 6.2 mi SSW 4.6 mph - N/A   Overcast
7:30 AM 57.2 °F 53.6 °F 88% 30.01 in 6.2 mi South 3.5 mph - N/A   Overcast
8:00 AM 57.2 °F 55.4 °F 94% 30.01 in 6.2 mi South 3.5 mph - N/A   Overcast
8:30 AM 57.2 °F 55.4 °F 94% 30.01 in 6.2 mi South 3.5 mph - N/A   Overcast
9:00 AM 57.2 °F 55.4 °F 94% 30.04 in 6.2 mi South 4.6 mph - N/A   Overcast
9:30 AM 57.2 °F 55.4 °F 94% 30.04 in 6.2 mi SSE 5.8 mph - N/A Rain Light Rain
10:00 AM 57.2 °F 55.4 °F 94% 30.04 in 6.2 mi Variable 2.3 mph - N/A   Overcast
10:30 AM 59.0 °F 55.4 °F 88% 30.01 in 6.2 mi SSW 4.6 mph - N/A   Overcast
11:00 AM 60.8 °F 55.4 °F 82% 30.01 in 6.2 mi Calm Calm - N/A   Overcast
11:30 AM 60.8 °F 55.4 °F 82% 30.01 in 6.2 mi Calm Calm - N/A   Overcast
12:00 PM 62.6 °F 55.4 °F 77% 30.01 in 6.2 mi Variable 1.2 mph - N/A   Overcast
12:30 PM 64.4 °F 55.4 °F 73% 30.01 in 6.2 mi Variable 2.3 mph - N/A   Mostly Cloudy
1:00 PM 66.2 °F 57.2 °F 73% 30.01 in 6.2 mi Calm Calm - N/A   Mostly Cloudy
1:30 PM 66.2 °F 55.4 °F 68% 30.01 in 6.2 mi Calm Calm - N/A   Overcast
2:00 PM 68.0 °F 55.4 °F 64% 30.01 in 6.2 mi Variable 2.3 mph - N/A   Mostly Cloudy
2:30 PM 68.0 °F 55.4 °F 64% 29.98 in 6.2 mi Variable 2.3 mph - N/A   Mostly Cloudy
3:00 PM 68.0 °F 55.4 °F 64% 29.98 in 6.2 mi SSE 3.5 mph - N/A   Overcast
3:30 PM 68.0 °F 55.4 °F 64% 29.98 in 6.2 mi Variable 2.3 mph - N/A   Overcast
4:00 PM 68.0 °F 57.2 °F 68% 29.98 in 6.2 mi South 3.5 mph - N/A   Overcast
4:30 PM 68.0 °F 57.2 °F 68% 30.01 in 6.2 mi SW 3.5 mph - N/A   Overcast
5:00 PM 66.2 °F 57.2 °F 73% 30.01 in 6.2 mi WSW 3.5 mph - N/A   Overcast
5:30 PM 66.2 °F 57.2 °F 73% 30.01 in 6.2 mi WNW 9.2 mph - N/A   Overcast
6:00 PM 66.2 °F 57.2 °F 73% 30.01 in 6.2 mi WNW 10.4 mph - N/A   Overcast
6:30 PM 66.2 °F 57.2 °F 73% 30.01 in 6.2 mi West 10.4 mph - N/A   Overcast
7:00 PM 66.2 °F 57.2 °F 73% 30.04 in 6.2 mi West 10.4 mph - N/A   Overcast
7:30 PM 64.4 °F 57.2 °F 77% 30.04 in 6.2 mi West 8.1 mph - N/A   Overcast
8:00 PM 64.4 °F 57.2 °F 77% 30.04 in 6.2 mi West 6.9 mph - N/A   Overcast
8:30 PM 62.6 °F 57.2 °F 82% 30.06 in 6.2 mi West 6.9 mph - N/A   Scattered Clouds
9:00 PM 62.6 °F 57.2 °F 82% 30.06 in 6.2 mi West 6.9 mph - N/A   Partly Cloudy
9:30 PM 60.8 °F 57.2 °F 88% 30.06 in 6.2 mi West 5.8 mph - N/A   Mostly Cloudy
10:00 PM 60.8 °F 57.2 °F 88% 30.06 in 6.2 mi Variable 3.5 mph - N/A   Overcast
10:30 PM 62.6 °F 57.2 °F 82% 30.06 in 6.2 mi West 4.6 mph - N/A   Overcast
11:00 PM 60.8 °F 57.2 °F 88% 30.06 in 6.2 mi WSW 5.8 mph - N/A   Overcast
11:30 PM 60.8 °F 57.2 °F 88% 30.09 in 6.2 mi WSW 5.8 mph - N/A Rain Light Rain